Location: Caltech
(34.1382°N, 118.1253°W)
Time: 14:53:22
(UTC-07:00)

Cosmos 2237 Rocket - Visible Passes

Search period start: 05 May 2016 00:00
Search period end: 15 May 2016 00:00
Orbit: 836 x 849 km, 71.0° (Epoch: 05 May)

Date Brightness Start Highest point End Pass type
(mag) Time Alt. Az. Time Alt. Az. Time Alt. Az.
05 May 4.3 00:16:15 20° NNE 00:16:15 20° NNE 00:17:57 10° NNE visible
05 May 4.6 01:58:03 14° NW 01:58:03 14° NW 01:59:57 10° NNW visible
06 May 4.3 00:01:24 20° NNE 00:01:24 20° NNE 00:03:07 10° NNE visible
06 May 4.5 01:43:10 14° NW 01:43:10 14° NW 01:45:17 10° NNW visible
06 May 4.2 23:46:28 21° NNE 23:46:28 21° NNE 23:48:16 10° NNE visible
07 May 4.5 01:28:16 15° NW 01:28:16 15° NW 01:30:37 10° NNW visible
07 May 4.1 23:31:31 22° NE 23:31:31 22° NE 23:33:26 10° NNE visible
08 May 4.5 01:13:18 16° NW 01:13:18 16° NW 01:15:56 10° NNW visible
08 May 3.9 23:16:29 23° NE 23:16:29 23° NE 23:18:36 10° NNE visible
09 May 4.4 00:58:17 17° NW 00:58:17 17° NW 01:01:14 10° NNW visible
09 May 3.8 23:01:24 25° NE 23:01:24 25° NE 23:03:45 10° NNE visible
10 May 4.4 00:43:10 18° NW 00:43:10 18° NW 00:46:31 10° NNW visible
10 May 3.6 22:46:13 27° NE 22:46:13 27° NE 22:48:54 10° NNE visible
11 May 4.3 00:27:59 20° NW 00:27:59 20° NW 00:31:48 10° NNW visible
11 May 3.3 22:30:56 31° NE 22:30:56 31° NE 22:34:03 10° NNE visible
12 May 4.2 00:12:41 20° WNW 00:12:57 21° WNW 00:17:05 10° N visible
12 May 3.0 22:15:32 35° ENE 22:15:32 35° ENE 22:19:11 10° NE visible
12 May 4.1 23:57:16 21° WNW 23:58:06 22° WNW 00:02:22 10° N visible
13 May 2.7 21:59:57 40° E 21:59:57 40° E 22:04:20 10° NE visible
13 May 4.1 23:41:40 20° W 23:43:15 23° WNW 23:47:38 10° N visible
14 May 2.5 21:44:07 40° ESE 21:44:15 40° ESE 21:49:29 10° NE visible
14 May 4.1 23:25:50 18° W 23:28:24 24° WNW 23:32:53 10° N visible
